Regional Weather Roundup
Issued by NWS Newport/Morehead, NC

Current Version | Previous Version | Graphics & Text | Print | Product List | Glossary Off
Versions: 1 2 3 4 5 6 7 8 9 10 11 12 13 14 15 16 17 18 19 20 21 22 23 24 25 26 27 28 29 30 31 32 33 34 35 36 37 38 39 40 41 42 43 44 45 46 47 48 49 50

000
ASUS42 KMHX 021212
RWRMHX
WEATHER ROUNDUP FOR EASTERN NORTH CAROLINA
NATIONAL WEATHER SERVICE NEWPORT/MOREHEAD CITY NC
700 AM EST MON MAR 02 2015

NOTE: "FAIR" INDICATES FEW OR NO CLOUDS BELOW 12,000 FEET
WITH NO SIGNIFICANT WEATHER AND/OR OBSTRUCTIONS TO VISIBILITY

NCZ015>017-031-032-045>047-102-103-021300-
NORTH COAST

CITY           SKY/WX    TMP DP  RH WIND       PRES   REMARKS
EDENTON        FOG       38  38  99 W6        30.18F VSB 1/2
ELIZABETH CITY FOG       38  37  97 SW9       30.16F VSB 1/2
KITTY HAWK     FOG       40  40 100 W8        30.15R VSB 1/2
MANTEO         CLOUDY    41  41 100 W8        30.17S FOG

$$

NCZ045>047-081-094-103-104-021300-
CENTRAL COAST

CITY           SKY/WX    TMP DP  RH WIND       PRES   REMARKS
FRISCO         FOG       41  41 100 W5        30.19S VSB 1/4
SWANQUARTER      N/A     41 N/A N/A W5        30.15S

$$

NCZ095-097-098-100-101-021300-
SOUTHERN COAST

CITY           SKY/WX    TMP DP  RH WIND       PRES   REMARKS
BEAUFORT       FOG       45  45 100 SW6       30.21S VSB 1/4
CEDAR ISLAND     N/A     45 N/A N/A SW6       30.21F
JACKSONVILLE   CLOUDY    44  43  96 SW6       30.21S FOG
PINEY ISLAND     N/A    N/A N/A N/A MISG      30.19F
WILMINGTON     CLOUDY    45  44  97 SW9       30.23R FOG


$$

NCZ011>013-027>030-043-044-078>080-089-090>093-098-021300-
COASTAL PLAIN

CITY           SKY/WX    TMP DP  RH WIND       PRES   REMARKS
AHOSKIE        FOG       35  35  98 CALM      30.18S VSB 1/4
CLINTON        CLOUDY    41  41 100 SW5       30.22F FOG
ELIZABETHTOWN  CLOUDY    41  41 100 W5        30.23F FOG
GOLDSBORO      CLOUDY    40  40 100 W6        30.19R FOG
GREENVILLE     FOG       41  41 100 W5        30.20S VSB 1
HAVELOCK       FOG       46  44  93 SW7       30.22R VSB 1/2
KENANSVILLE    CLOUDY    41  41 100 SW7       30.22S FOG
KINSTON        FOG       41  41 100 SW7       30.20S VSB 1
NEW BERN       CLOUDY    44  43  96 W3        30.21S FOG
RICHLANDS      CLOUDY    43  39  87 SW7       30.22S
ROCKY MOUNT    FOG       40  39  97 SW5       30.19S VSB 1/2
WASHINGTON     FOG       40  40  99 SW7       30.19S VSB 3/4
WHITEVILLE     CLOUDY    43  42  97 SW3       30.23S FOG

$$

AMZ130-135-150-152-154-156-158-170-250-252-270-ANZ085-086-088-633-658-670-021300-
MARINE OBSERVATIONS

STATION/POSITION TIME  TEMP    WIND        PRES    WAVE   SWELL
                       AIR SEA DIR/SP/G            HT/PER HT/PER
                 (UTC) (F)     (DEG/KT/KT) (MB)    (FT/S) (FT/S)
CHESAPEAKE LIGHT 1100   35     240/ 11/ 11 1021.1
64 E VA BEACH    1150   43 51  240/ 16/ 17 1020.0    4/ 7   2/ 8
DUCK             1100   38 34  240/ 11/ 12 1020.3
2 E DUCK         1111                        N/A     3/ 6
10 NE DUCK       1122      37                N/A     4/ 7
OREGON INLET     1100   40 42  210/  9/ 11 1021.3
HATTERAS CG      1106   41 42  270/  7/ 10 1022.8
CAPE LOOKOUT     1200   46     250/  8/ 10 1022.7
BEAUFORT LAB     1100   44 43  240/  4/  7 1022.0
27 SE WRIGHTSVLE NOT AVBL
5 SE WRIGHTSVLE  NOT AVBL
225 S CAPE HAT   1150   71 72  220/ 16/ 17 1025.0    6/ 9   3/ 9
41 SE CHARLESTON 1150   60 68  260/ 12/ 14 1024.7    4/ 8   3/ 8

$$


USA.gov is the U.S. government's official web portal to all federal, state and local government web resources and services.